| time (UTC) | temp F | wind direction | speed knots | gust knots | rain 1hr in | rain 24hr in | rain mn in | humidity % | barometer mb |
| 20260508220051 | 67 | 266 | 0.0 | 0.0 | 0.00 | 0.00 | 0.00 | 46 | 1012.1 |
| 20260508214559 | 67 | 261 | 0.0 | 0.9 | 0.00 | 0.00 | 0.00 | 44 | 1012.5 |
| 20260508213041 | 67 | 32 | 0.0 | 0.0 | 0.00 | 0.00 | 0.00 | 40 | 1012.2 |
| 20260508211536 | 67 | 293 | 0.0 | 0.9 | 0.00 | 0.00 | 0.00 | 36 | 1012.3 |
| 20260508210036 | 68 | 313 | 0.0 | 0.0 | 0.00 | 0.00 | 0.00 | 37 | 1012.4 |
| 20260508204527 | 68 | 316 | 0.0 | 0.9 | 0.00 | 0.00 | 0.00 | 37 | 1012.8 |
| 20260508203024 | 68 | 269 | 0.0 | 0.0 | 0.00 | 0.00 | 0.00 | 38 | 1012.9 |
| 20260508201520 | 67 | 69 | 0.0 | 0.0 | 0.00 | 0.00 | 0.00 | 38 | 1013.1 |
| 20260508200020 | 67 | 82 | 0.0 | 5.2 | 0.00 | 0.00 | 0.00 | 36 | 1013.1 |
| 20260508194510 | 67 | 88 | 0.0 | 0.0 | 0.00 | 0.02 | 0.00 | 34 | 1013.2 |
| 20260508193006 | 67 | 274 | 0.0 | 0.0 | 0.00 | 0.02 | 0.00 | 35 | 1013.5 |
| 20260508191502 | 67 | 38 | 0.0 | 0.9 | 0.00 | 0.02 | 0.00 | 35 | 1013.7 |
| 20260508190107 | 68 | 98 | 0.0 | 0.0 | 0.00 | 0.02 | 0.00 | 33 | 1013.9 |
| 20260508184558 | 68 | 347 | 0.0 | 0.9 | 0.00 | 0.02 | 0.00 | 36 | 1014.1 |
| 20260508183108 | 69 | 121 | 0.0 | 0.0 | 0.00 | 0.02 | 0.00 | 35 | 1014.2 |
| 20260508181544 | 69 | 167 | 0.0 | 0.0 | 0.00 | 0.02 | 0.00 | 33 | 1014.4 |
| 20260508180055 | 70 | 204 | 0.0 | 0.0 | 0.00 | 0.02 | 0.00 | 34 | 1014.7 |
| 20260508174543 | 70 | 342 | 0.0 | 0.0 | 0.00 | 0.03 | 0.00 | 34 | 1014.9 |
| 20260508173030 | 70 | 130 | 0.0 | 0.9 | 0.00 | 0.03 | 0.00 | 39 | 1015.1 |
| 20260508171527 | 69 | 49 | 0.0 | 0.0 | 0.00 | 0.03 | 0.00 | 37 | 1015.1 |
| 20260508170031 | 69 | 166 | 0.0 | 0.0 | 0.00 | 0.03 | 0.00 | 44 | 1015.4 |
| 20260508164524 | 68 | 355 | 0.0 | 0.0 | 0.00 | 0.08 | 0.00 | 39 | 1015.7 |
| 20260508163016 | 67 | 336 | 0.0 | 0.0 | 0.00 | 0.08 | 0.00 | 44 | 1016.1 |
| 20260508161511 | 66 | 129 | 0.0 | 0.9 | 0.00 | 0.08 | 0.00 | 43 | 1016.3 |
| 20260508160005 | 66 | 100 | 0.0 | 0.0 | 0.00 | 0.08 | 0.00 | 36 | 1016.5 |
| 20260508154601 | 65 | 169 | 0.0 | 0.0 | 0.00 | 0.08 | 0.00 | 46 | 1016.6 |
| 20260508153058 | 65 | 67 | 0.0 | 0.0 | 0.00 | 0.08 | 0.00 | 46 | 1016.7 |
| 20260508151552 | 65 | 327 | 0.0 | 0.0 | 0.00 | 0.08 | 0.00 | 55 | 1016.8 |
| 20260508150046 | 63 | 136 | 0.0 | 0.0 | 0.00 | 0.08 | 0.00 | 53 | 1016.9 |
| 20260508144548 | 62 | 323 | 0.0 | 0.0 | 0.00 | 0.08 | 0.00 | 61 | 1016.9 |
| 20260508143038 | 61 | 34 | 0.0 | 0.0 | 0.00 | 0.08 | 0.00 | 60 | 1016.9 |
| 20260508141535 | 59 | 265 | 0.0 | 0.0 | 0.00 | 0.08 | 0.00 | 63 | 1016.9 |
| 20260508140029 | 58 | 301 | 0.0 | 0.0 | 0.00 | 0.08 | 0.00 | 59 | 1016.8 |
| 20260508134524 | 56 | 271 | 0.0 | 0.0 | 0.00 | 0.09 | 0.00 | 1 | 1016.7 |
| 20260508133031 | 53 | 121 | 0.0 | 0.0 | 0.00 | 0.09 | 0.00 | 1 | 1016.7 |
| 20260508131516 | 53 | 132 | 0.0 | 0.0 | 0.00 | 0.09 | 0.00 | 1 | 1016.7 |
| 20260508130027 | 53 | 74 | 0.0 | 0.0 | 0.00 | 0.09 | 0.00 | 1 | 1016.6 |
| 20260508124507 | 51 | 316 | 0.0 | 0.0 | 0.00 | 0.13 | 0.00 | 1 | 1016.6 |
| 20260508123007 | 49 | 5 | 0.0 | 0.0 | 0.00 | 0.13 | 0.00 | 1 | 1016.6 |
| 20260508121609 | 46 | 88 | 0.0 | 0.0 | 0.00 | 0.13 | 0.00 | 1 | 1016.3 |
| 20260508120108 | 43 | 312 | 0.0 | 0.0 | 0.00 | 0.13 | 0.00 | 1 | 1016.1 |
| 20260508114557 | 41 | 331 | 0.0 | 0.0 | 0.00 | 0.14 | 0.00 | 1 | 1015.8 |
| 20260508113048 | 40 | 226 | 0.0 | 0.0 | 0.00 | 0.14 | 0.00 | 1 | 1015.7 |
| 20260508111542 | 40 | 257 | 0.0 | 0.0 | 0.00 | 0.14 | 0.00 | 1 | 1015.4 |
| 20260508110036 | 40 | 254 | 0.0 | 0.0 | 0.00 | 0.14 | 0.00 | 1 | 1015.2 |
| 20260508104535 | 40 | 258 | 0.0 | 0.0 | 0.00 | 0.14 | 0.00 | 1 | 1015.0 |
| 20260508103034 | 40 | 268 | 0.0 | 0.0 | 0.00 | 0.14 | 0.00 | 1 | 1014.8 |
| 20260508101523 | 41 | 287 | 0.0 | 0.0 | 0.00 | 0.14 | 0.00 | 1 | 1014.6 |
| 20260508100018 | 41 | 287 | 0.0 | 0.0 | 0.00 | 0.14 | 0.00 | 1 | 1014.4 |
| 20260508094515 | 42 | 195 | 0.0 | 0.0 | 0.00 | 0.14 | 0.00 | 1 | 1014.2 |
| 20260508093010 | 42 | 195 | 0.0 | 0.0 | 0.00 | 0.14 | 0.00 | 1 | 1014.0 |
| 20260508091511 | 42 | 195 | 0.0 | 0.0 | 0.00 | 0.14 | 0.00 | 1 | 1014.0 |
| 20260508090003 | 43 | 195 | 0.0 | 0.0 | 0.00 | 0.14 | 0.00 | 1 | 1013.8 |
| 20260508084559 | 43 | 195 | 0.0 | 0.0 | 0.00 | 0.14 | 0.00 | 1 | 1013.7 |
| 20260508083052 | 43 | 195 | 0.0 | 0.0 | 0.00 | 0.14 | 0.00 | 1 | 1013.5 |
| 20260508081548 | 44 | 195 | 0.0 | 0.0 | 0.00 | 0.14 | 0.00 | 1 | 1013.4 |
| 20260508080044 | 44 | 195 | 0.0 | 0.0 | 0.00 | 0.14 | 0.00 | 1 | 1013.3 |
| 20260508074539 | 44 | 195 | 0.0 | 0.0 | 0.00 | 0.14 | 0.00 | 1 | 1013.0 |
| 20260508073040 | 44 | 195 | 0.0 | 0.0 | 0.00 | 0.14 | 0.00 | 1 | 1013.0 |
| 20260508071534 | 45 | 195 | 0.0 | 0.0 | 0.00 | 0.14 | 0.00 | 1 | 1012.9 |
| 20260508070027 | 45 | 195 | 0.0 | 0.0 | 0.00 | 0.14 | 0.00 | 1 | 1012.7 |
| 20260508064527 | 45 | 195 | 0.0 | 0.0 | 0.00 | 0.14 | 0.00 | 1 | 1012.6 |
| 20260508063018 | 45 | 195 | 0.0 | 0.0 | 0.00 | 0.14 | 0.00 | 1 | 1012.7 |
| 20260508061513 | 45 | 195 | 0.0 | 0.0 | 0.00 | 0.14 | 0.00 | 1 | 1012.7 |
| 20260508060008 | 46 | 195 | 0.0 | 0.0 | 0.00 | 0.14 | 0.00 | 1 | 1012.7 |
| 20260508054505 | 46 | 195 | 0.0 | 0.0 | 0.00 | 0.15 | 0.00 | 1 | 1012.6 |
| 20260508053108 | 46 | 195 | 0.0 | 0.0 | 0.00 | 0.15 | 0.00 | 1 | 1012.7 |
| 20260508051556 | 46 | 195 | 0.0 | 0.0 | 0.00 | 0.15 | 0.00 | 1 | 1012.5 |
| 20260508050051 | 47 | 195 | 0.0 | 0.0 | 0.00 | 0.15 | 0.00 | 1 | 1012.4 |
| 20260508044546 | 47 | 195 | 0.0 | 0.0 | 0.00 | 0.15 | 0.00 | 1 | 1012.2 |
| 20260508043055 | 47 | 195 | 0.0 | 0.0 | 0.00 | 0.15 | 0.00 | 1 | 1012.1 |
| 20260508041547 | 48 | 195 | 0.0 | 0.0 | 0.00 | 0.15 | 0.00 | 1 | 1011.9 |
| 20260508040038 | 48 | 195 | 0.0 | 0.0 | 0.00 | 0.15 | 0.00 | 1 | 1012.0 |
| 20260508034530 | 48 | 195 | 0.0 | 0.0 | 0.00 | 0.18 | 0.15 | 1 | 1011.8 |
| 20260508033024 | 49 | 195 | 0.0 | 0.0 | 0.00 | 0.18 | 0.15 | 1 | 1011.7 |
| 20260508031520 | 49 | 195 | 0.0 | 0.0 | 0.00 | 0.18 | 0.15 | 1 | 1011.4 |
| 20260508030015 | 50 | 195 | 0.0 | 0.0 | 0.00 | 0.18 | 0.15 | 1 | 1011.4 |
| 20260508024510 | 50 | 195 | 0.0 | 0.0 | 0.00 | 0.20 | 0.15 | 1 | 1011.4 |
| 20260508023007 | 51 | 195 | 0.0 | 0.0 | 0.00 | 0.20 | 0.15 | 1 | 1011.0 |
| 20260508021501 | 51 | 195 | 0.0 | 0.0 | 0.00 | 0.20 | 0.15 | 1 | 1010.8 |
| 20260508020103 | 52 | 195 | 0.0 | 0.0 | 0.00 | 0.20 | 0.15 | 1 | 1010.5 |
| 20260508014556 | 52 | 195 | 0.0 | 0.0 | 0.00 | 0.22 | 0.15 | 1 | 1010.3 |
| 20260508013056 | 53 | 195 | 0.0 | 0.0 | 0.00 | 0.22 | 0.15 | 1 | 1010.1 |
| 20260508011549 | 54 | 195 | 0.0 | 0.0 | 0.00 | 0.22 | 0.15 | 1 | 1009.9 |
| 20260508010040 | 54 | 195 | 0.0 | 0.0 | 0.00 | 0.22 | 0.15 | 1 | 1009.7 |
| 20260508004536 | 55 | 195 | 0.0 | 0.0 | 0.00 | 0.24 | 0.15 | 1 | 1009.6 |
| 20260508003032 | 56 | 195 | 0.0 | 0.0 | 0.00 | 0.24 | 0.15 | 1 | 1009.6 |
| 20260508001549 | 56 | 195 | 0.0 | 0.0 | 0.00 | 0.24 | 0.15 | 1 | 1009.6 |
| 20260508000023 | 56 | 240 | 0.0 | 0.0 | 0.00 | 0.24 | 0.15 | 1 | 1009.4 |
| 20260507234518 | 57 | 254 | 0.0 | 0.0 | 0.00 | 0.24 | 0.15 | 1 | 1009.4 |
| 20260507233017 | 57 | 263 | 0.0 | 0.0 | 0.00 | 0.24 | 0.15 | 1 | 1009.1 |
| 20260507231510 | 57 | 263 | 0.0 | 0.9 | 0.00 | 0.24 | 0.15 | 1 | 1008.7 |
| 20260507230007 | 57 | 68 | 0.0 | 0.0 | 0.00 | 0.24 | 0.15 | 1 | 1008.4 |
| 20260507224500 | 56 | 256 | 0.0 | 0.0 | 0.00 | 0.24 | 0.15 | 1 | 1008.4 |
| 20260507223057 | 57 | 239 | 0.0 | 0.0 | 0.00 | 0.24 | 0.15 | 1 | 1008.5 |
| 20260507221552 | 56 | 104 | 0.0 | 0.0 | 0.00 | 0.24 | 0.15 | 1 | 1008.2 |